Regional Weather Roundup
Issued by NWS Columbia, SC

Current Version | Previous Version | Text Only | Print | Product List | Glossary On
Versions: 1 2 3 4 5 6 7 8 9 10 11 12 13 14 15 16 17 18 19 20 21 22 23 24 25 26 27
000
ASUS42 KCAE 091410
RWRCAE
REGIONAL WEATHER ROUNDUP
NATIONAL WEATHER SERVICE COLUMBIA SC
900 AM EST FRI DEC 09 2016

NOTE: "FAIR" INDICATES FEW OR NO CLOUDS BELOW 12,000 FEET WITH NO
SIGNIFICANT WEATHER AND/OR OBSTRUCTIONS TO VISIBILITY.

NOT ALL STATIONS ARE QUALITY CONTROLLED BY THE NATIONAL
WEATHER SERVICE. USE DATA WITH CAUTION...ESPECIALLY
DEWPOINT OBSERVATIONS.

SCZ001>056-GAZ040-063>065-077-091500-
...UPSTATE SOUTH CAROLINA...

CITY           SKY/WX    TMP DP  RH WIND       PRES   REMARKS
ANDERSON       SUNNY     33  23  66 CALM      30.41R
LIBERTY        SUNNY     29  25  82 E3        30.38S
SPARTANBURG    SUNNY     32  14  47 NW8       30.40R WCI  25
CLEMSON        SUNNY     34  21  59 CALM      30.40R
GREENVILLE     SUNNY     34  15  46 N13       30.40R WCI  25
GREENWOOD      SUNNY     33  18  53 NW3       30.44R
GREER          SUNNY     32  15  49 NW7       30.40R WCI  26
ROCK HILL      SUNNY     34  17  50 N9        30.40R WCI  27
CHESTER        SUNNY     32  18  55 N6        30.42R WCI  26
LAURENS          N/A     32  18  55 N7        30.41R WCI  26


...CENTRAL SOUTH CAROLINA...

CITY           SKY/WX    TMP DP  RH WIND       PRES   REMARKS
COLUMBIA APT   SUNNY     39  16  39 N6        30.43R WCI  35
COLUMBIA OWENS SUNNY     38  16  40 N5        30.45R WCI  34
MCENTIRE ANGB  SUNNY     36  22  55 NW8       30.43R WCI  30
ORANGEBURG     SUNNY     38  18  44 N8        30.43R WCI  32
SUMTER SHAW    SUNNY     37  17  45 N12       30.41R WCI  29
NEWBERRY       SUNNY     32  21  64 N7        30.46R WCI  26
AIKEN          FAIR      34  19  55 N7        30.45R WCI  28
MANNING        FAIR      36  23  60 N8        30.43R WCI  29
LANCASTER      SUNNY     34  18  51 N5        30.42R WCI  30
WINNSBORO      SUNNY     32  19  59 N3        30.41R


...EASTERN AND COASTAL SOUTH CAROLINA...

CITY           SKY/WX    TMP DP  RH WIND       PRES   REMARKS
MYRTLE BEACH   SUNNY     39  19  45 N17       30.42R WCI  30
N MYRTLE BCH   SUNNY     38  22  52 N12G18    30.39R WCI  30
CONWAY         FAIR      36  23  60 N7        30.41R HAZE    WCI  30
MARION         FAIR      36  21  55 N12       30.43R WCI  27
HARTSVILLE     FAIR      34  18  51 N7        30.41R WCI  28
FLORENCE       SUNNY     37  20  50 N10       30.43R WCI  30
DARLINGTON     SUNNY     35  20  54 N9        30.43R WCI  28
CHARLESTON APT MOSUNNY   43  19  38 N15       30.41R
WALTERBORO     SUNNY     41  27  56 N7        30.44R
BEAUFORT       SUNNY     43  25  49 N9        30.42R


...EASTERN GEORGIA...

CITY           SKY/WX    TMP DP  RH WIND       PRES   REMARKS
AUGUSTA BUSH F SUNNY     39  25  57 N6        30.44R WCI  35
AUGUSTA DANIEL SUNNY     37  22  54 NW7       30.44R WCI  32
THOMSON        SUNNY     34  26  71 CALM      30.49R
WASHINGTON     FAIR      34  23  64 NW8       30.43R WCI  27
CLAXTON        FAIR      41  28  59 NW5       30.45R
SYLVANIA       SUNNY    N/A N/A N/A N6        30.45R
STATESBORO     SUNNY     39  28  64 N9        30.45R WCI  33
SAVANNAH       MOSUNNY   42  26  53 N9        30.43R


...SOUTHERN NORTH CAROLINA...

CITY           SKY/WX    TMP DP  RH WIND       PRES   REMARKS
CHARLOTTE      SUNNY     33  14  45 NW9       30.40R WCI  25
MONROE         SUNNY     34  14  43 N7        30.38R WCI  28
WADESBORO      SUNNY     33  18  53 NW3       30.41S
ROCKINGHAM     SUNNY     33  17  51 N12       30.40R WCI  24
RUTHERFORDTON  SUNNY     30  14  51 N3        30.40R
ASHEVILLE      SUNNY     24  12  60 N16G23    30.37R WCI  11

$$




USA.gov is the U.S. government's official web portal to all federal, state and local government web resources and services.